Lid_Strength_Index
9 9 9 10 10 11 11 12 12 11 11 10 10 8 8 7 8 9 9 9 10 10 9 9 9 9 11 11 12 12 13 13 16 15 14 14 15 15 15 14 14 15 15
9 9 9 9 10 11 11 11 12 12 12 11 11 10 9 9 8 9 10 9 10 10 10 10 9 9 10 11 12 13 13 13 15 16 16 16 16 16 16 17 16 15 17
9 10 10 11 11 13 13 13 12 12 13 12 11 11 11 11 10 9 9 10 10 10 10 9 9 9 10 11 11 12 13 13 15 17 16 16 16 16 17 19 18 17 14
9 9 9 11 11 12 14 16 17 15 13 13 12 11 11 11 10 11 10 10 11 11 10 10 9 9 10 10 11 12 12 15 16 17 16 16 16 16 16 18 17 14 14
11 11 12 11 12 14 17 17 17 17 15 15 14 13 13 10 9 9 9 10 11 12 12 11 10 10 10 10 10 12 12 14 16 16 16 16 17 17 17 16 16 14 14
13 14 14 13 14 15 16 17 17 18 18 17 15 15 14 11 9 9 8 9 9 11 12 13 12 12 11 10 9 10 11 14 16 17 15 16 16 17 16 16 15 15 16
15 15 15 15 15 15 16 18 17 17 19 19 17 15 14 12 9 9 9 10 10 10 10 12 12 11 12 11 10 10 11 11 12 15 16 15 16 16 16 16 15 15 15
15 16 16 16 16 16 18 17 18 17 17 16 17 17 15 13 9 8 8 10 10 10 10 10 11 12 12 12 12 12 13 13 14 14 15 15 15 16 15 15 14 14 15
15 15 15 15 15 16 17 16 16 16 15 16 14 15 16 16 10 8 9 9 10 10 10 10 10 12 10 10 12 13 13 14 12 12 13 12 12 13 14 15 14 15 15
14 14 15 15 15 15 16 17 17 15 13 12 12 14 15 14 11 10 9 12 11 10 10 10 10 10 9 8 11 13 14 15 15 15 16 15 14 14 13 14 15 15 16
13 14 15 16 15 14 14 15 15 14 13 15 13 13 14 14 13 9 8 12 12 11 10 11 11 9 9 8 8 11 13 15 14 16 16 17 16 17 17 17 16 17 14
14 14 15 16 15 13 13 12 13 13 13 14 15 13 13 13 11 8 8 8 9 11 11 10 10 9 9 8 9 9 9 13 15 16 16 17 17 18 18 18 19 18 16
16 17 17 16 15 14 14 13 12 11 12 12 12 12 12 12 12 8 7 8 9 10 10 10 9 8 8 9 8 9 11 13 14 16 17 17 18 18 18 19 20 19 19
18 18 17 17 16 15 14 13 12 12 12 12 12 12 12 13 12 12 11 11 10 11 10 10 10 9 9 9 11 9 11 12 13 15 16 18 18 18 18 18 19 20 22
18 18 17 17 17 16 15 14 13 11 10 12 11 11 13 14 11 10 10 12 14 12 16 11 11 11 12 12 11 11 12 12 13 15 16 18 18 18 18 18 18 18 22
21 19 18 18 18 17 17 17 13 12 10 8 7 8 9 8 7 6 7 8 8 8 18 14 17 13 12 12 11 12 12 12 12 13 15 17 18 18 18 18 17 18 19
24 22 21 19 19 18 17 17 17 14 11 9 7 6 5 6 5 5 6 6 7 9 19 20 11 17 16 11 11 11 12 12 12 13 15 16 17 18 17 18 17 17 19
25 23 22 21 20 19 19 18 17 17 17 15 10 8 6 5 5 5 5 6 16 14 19 19 17 16 15 15 10 11 11 11 12 12 14 16 17 17 17 17 17 17 20
24 23 22 21 20 19 18 18 17 16 15 15 14 12 12 7 5 5 5 9 14 17 18 17 15 14 15 14 14 10 10 11 12 12 13 15 16 17 17 17 16 17 20
24 23 22 22 21 19 19 20 20 18 17 16 15 14 18 18 13 11 12 17 16 15 16 14 14 13 13 13 13 9 10 11 12 12 13 14 15 16 17 17 16 18 21
22 22 22 22 21 20 20 20 20 20 19 18 16 15 10 14 13 15 15 13 13 13 16 14 13 12 11 13 9 9 9 10 11 12 13 13 15 16 16 16 16 18 19
22 22 22 21 21 21 20 19 20 20 19 19 17 16 11 12 12 12 13 13 13 14 14 13 11 11 9 9 7 8 9 9 11 11 12 13 14 15 16 16 17 17 19
21 21 21 21 21 20 20 19 19 20 20 19 19 17 16 15 14 13 14 15 15 15 14 15 12 10 9 7 6 7 8 9 9 11 11 13 14 15 15 16 17 17 18
21 21 21 21 20 19 19 20 19 19 19 20 19 18 17 15 15 15 14 13 18 16 14 12 11 11 9 8 6 6 7 7 8 10 10 12 13 14 15 15 16 17 18
21 21 21 21 21 20 20 18 18 18 18 19 20 19 18 16 15 15 14 13 13 13 13 12 11 11 11 9 6 6 7 8 8 9 10 11 13 14 14 15 16 17 18
21 21 21 21 21 21 20 20 19 18 17 18 18 18 18 17 16 15 14 14 13 13 13 12 11 11 10 9 6 6 7 7 8 9 9 11 13 14 14 15 16 17 18